GW6524 Weather Reports


time (UTC)temp
C
wind
direction
speed
KPH
gust
KPH
rain 1hr
cm
rain 24hr
cm
rain mn
cm
humidity
%
barometer
mb
20260505124817 18 67 1.6 3.2 0.00 0.00 0.00 70 1017.0
20260505124314 18 76 3.2 3.2 0.00 0.00 0.00 71 1017.1
20260505123810 17 68 0.0 3.2 0.00 0.00 0.00 73 1017.0
20260505123307 17 300 3.2 3.2 0.00 0.00 0.00 74 1017.0
20260505122803 17 64 3.2 6.4 0.00 0.00 0.00 75 1016.8
20260505122301 17 59 0.0 1.6 0.00 0.00 0.00 76 1017.1
20260505121756 17 0 0.0 4.8 0.00 0.00 0.00 76 1016.7
20260505121253 16 108 0.0 1.6 0.00 0.00 0.00 76 1016.8
20260505120750 16 52 0.0 1.6 0.00 0.00 0.00 77 1016.8
20260505120246 16 234 1.6 3.2 0.00 0.00 0.00 77 1016.7
20260505115745 16 73 0.0 1.6 0.00 0.00 0.00 79 1016.8
20260505115243 16 64 0.0 0.0 0.00 0.00 0.00 79 1016.7
20260505114740 16 57 0.0 0.0 0.00 0.00 0.00 78 1016.5
20260505114236 16 55 0.0 3.2 0.00 0.00 0.00 78 1016.5
20260505113733 15 54 0.0 1.6 0.00 0.00 0.00 79 1016.7
20260505113229 15 63 0.0 0.0 0.00 0.00 0.00 78 1016.7
20260505112725 15 58 0.0 0.0 0.00 0.00 0.00 78 1016.8
20260505112223 15 76 1.6 1.6 0.00 0.00 0.00 78 1016.6
20260505111723 15 59 0.0 1.6 0.00 0.00 0.00 77 1016.4
20260505111219 15 73 3.2 3.2 0.00 0.00 0.00 77 1016.4
20260505110715 15 58 0.0 1.6 0.00 0.00 0.00 78 1016.5
20260505110213 15 85 1.6 3.2 0.00 0.00 0.00 78 1016.4
20260505102148 15 66 0.0 3.2 0.00 0.00 0.00 78 1016.2
20260505101647 15 77 0.0 0.0 0.00 0.00 0.00 78 1016.2
20260505101143 15 39 0.0 0.0 0.00 0.00 0.00 78 1016.0
20260505100639 15 40 0.0 1.6 0.00 0.00 0.00 78 1016.1
20260505100136 15 35 0.0 1.6 0.00 0.00 0.00 77 1016.0
20260505095632 15 33 0.0 1.6 0.00 0.00 0.00 77 1016.0
20260505095129 15 65 0.0 9.7 0.00 0.00 0.00 76 1016.1
20260505094626 15 69 1.6 3.2 0.00 0.00 0.00 77 1016.0
20260505094122 15 69 0.0 1.6 0.00 0.00 0.00 77 1016.0
20260505093618 15 61 1.6 6.4 0.00 0.00 0.00 78 1015.9
20260505093115 15 35 1.6 1.6 0.00 0.00 0.00 78 1015.8
20260505092612 15 49 0.0 1.6 0.00 0.00 0.00 78 1015.8
20260505092112 15 56 0.0 0.0 0.00 0.00 0.00 78 1015.9
20260505091608 15 60 0.0 0.0 0.00 0.00 0.00 78 1015.9
20260505091106 15 37 0.0 1.6 0.00 0.00 0.00 77 1016.0
20260505090604 15 137 0.0 1.6 0.00 0.00 0.00 77 1015.9
20260505085558 15 71 0.0 3.2 0.00 0.00 0.00 75 1016.1
20260505085057 15 80 0.0 0.0 0.00 0.00 0.00 75 1015.7
20260505084555 15 63 0.0 1.6 0.00 0.00 0.00 75 1015.9
20260505084052 15 65 1.6 1.6 0.00 0.00 0.00 75 1015.8
20260505083549 15 46 0.0 0.0 0.00 0.00 0.00 74 1015.9
20260505083046 15 66 0.0 1.6 0.00 0.00 0.00 74 1016.0
20260505082542 15 67 0.0 1.6 0.00 0.00 0.00 75 1015.7
20260505082039 15 66 0.0 3.2 0.00 0.00 0.00 75 1015.8
20260505081535 15 100 1.6 1.6 0.00 0.00 0.00 75 1015.8
20260505081032 15 65 0.0 1.6 0.00 0.00 0.00 74 1015.5
20260505080528 15 61 0.0 3.2 0.00 0.00 0.00 74 1015.5
20260505080025 15 61 0.0 0.0 0.00 0.00 0.00 73 1015.6
20260505075521 15 62 0.0 0.0 0.00 0.00 0.00 72 1015.7
20260505075018 15 44 0.0 0.0 0.00 0.00 0.00 71 1015.7
20260505074515 15 62 0.0 1.6 0.00 0.00 0.00 71 1015.6
20260505074013 15 65 0.0 1.6 0.00 0.00 0.00 70 1015.6
20260505073510 15 65 0.0 1.6 0.00 0.00 0.00 70 1015.5
20260505073008 15 80 0.0 1.6 0.00 0.00 0.00 70 1015.4
20260505072503 15 96 0.0 3.2 0.00 0.00 0.00 70 1015.4
20260505071959 15 62 0.0 0.0 0.00 0.00 0.00 70 1015.5
20260505071455 15 65 0.0 3.2 0.00 0.00 0.00 70 1015.5
20260505070954 15 56 0.0 0.0 0.00 0.00 0.00 69 1015.6
20260505070450 15 59 0.0 1.6 0.00 0.00 0.00 69 1015.6
20260505065946 15 71 0.0 1.6 0.00 0.00 0.00 69 1015.3
20260505065443 15 67 0.0 1.6 0.00 0.00 0.00 68 1015.5
20260505064939 15 68 0.0 1.6 0.00 0.00 0.00 69 1015.4
20260505064436 15 144 1.6 1.6 0.00 0.00 0.00 68 1015.5
20260505063935 15 81 1.6 1.6 0.00 0.00 0.00 68 1015.6
20260505063431 15 62 0.0 3.2 0.00 0.00 0.00 67 1015.7
20260505062927 16 54 0.0 0.0 0.00 0.00 0.00 66 1015.7
20260505062425 16 141 1.6 4.8 0.00 0.00 0.00 66 1015.7
20260505061921 16 58 0.0 0.0 0.00 0.00 0.00 66 1015.7
20260505061420 16 67 0.0 0.0 0.00 0.00 0.00 66 1015.8
20260505060917 16 47 0.0 0.0 0.00 0.00 0.00 66 1015.9
20260505060414 16 80 0.0 3.2 0.00 0.00 0.00 64 1015.8
20260505055910 16 55 1.6 1.6 0.00 0.00 0.00 64 1015.7
20260505055406 16 87 1.6 4.8 0.00 0.00 0.00 64 1016.0
20260505054903 16 70 1.6 3.2 0.00 0.00 0.00 63 1015.8
20260505054400 16 68 1.6 3.2 0.00 0.00 0.00 63 1015.8
20260505053858 16 85 1.6 1.6 0.00 0.00 0.00 63 1016.0
20260505053355 16 152 3.2 4.8 0.00 0.00 0.00 63 1016.0
20260505052852 16 87 0.0 3.2 0.00 0.00 0.00 62 1015.9
20260505052349 16 67 0.0 1.6 0.00 0.00 0.00 61 1016.1
20260505051846 16 83 1.6 3.2 0.00 0.00 0.00 61 1016.0
20260505051343 17 50 0.0 3.2 0.00 0.00 0.00 62 1016.1
20260505050841 17 78 1.6 1.6 0.00 0.00 0.00 61 1016.0
20260505050340 17 72 0.0 3.2 0.00 0.00 0.00 61 1015.9
20260505041307 17 51 0.0 3.2 0.00 0.00 0.00 59 1016.0
20260505040804 17 61 0.0 1.6 0.00 0.00 0.00 59 1015.9
20260505040301 17 64 0.0 1.6 0.00 0.00 0.00 59 1016.1
20260505035758 17 50 0.0 1.6 0.00 0.00 0.00 58 1016.2
20260505035253 17 72 0.0 3.2 0.00 0.00 0.00 59 1016.3
20260505034751 17 69 1.6 3.2 0.00 0.00 0.00 59 1016.2
20260505034248 17 183 1.6 4.8 0.00 0.00 0.00 58 1016.2
20260505033744 17 70 0.0 1.6 0.00 0.00 0.00 58 1016.3
20260505033242 17 57 0.0 3.2 0.00 0.00 0.00 58 1016.2
20260505032740 17 78 1.6 3.2 0.00 0.00 0.00 58 1016.4
20260505032235 17 80 0.0 1.6 0.00 0.00 0.00 58 1016.3
20260505031733 17 72 0.0 1.6 0.00 0.00 0.00 58 1016.1
20260505031229 18 67 0.0 1.6 0.00 0.00 0.00 57 1016.3
20260505030726 18 62 0.0 4.8 0.00 0.00 0.00 57 1016.3
20260505030222 18 63 1.6 1.6 0.00 0.00 0.00 57 1016.3
20260505025718 18 223 1.6 3.2 0.00 0.00 0.00 57 1016.5
20260505025217 18 58 1.6 1.6 0.00 0.00 0.00 57 1016.3
20260505024714 18 46 0.0 1.6 0.00 0.00 0.00 56 1016.2
20260505024211 18 66 0.0 3.2 0.00 0.00 0.00 56 1016.2
20260505023709 18 75 0.0 1.6 0.00 0.00 0.00 56 1016.2
20260505023206 18 78 0.0 4.8 0.00 0.00 0.00 55 1016.2
20260505022703 18 65 0.0 3.2 0.00 0.00 0.00 54 1016.0
20260505022200 18 82 3.2 3.2 0.00 0.00 0.00 54 1016.1
20260505021657 18 60 0.0 3.2 0.00 0.00 0.00 54 1016.2
20260505021153 18 55 0.0 3.2 0.00 0.00 0.00 53 1016.0
20260505020649 18 45 0.0 3.2 0.00 0.00 0.00 53 1015.8
20260505020145 18 101 3.2 6.4 0.00 0.00 0.00 52 1015.9
20260505015643 17 68 0.0 3.2 0.00 0.00 0.00 53 1015.8
20260505015139 16 61 1.6 3.2 0.00 0.00 0.00 54 1016.0
20260505014636 16 59 0.0 0.0 0.00 0.00 0.00 59 1015.6
20260505014133 15 66 0.0 1.6 0.00 0.00 0.00 59 1015.7
20260505013631 15 44 0.0 0.0 0.00 0.00 0.00 57 1015.3
20260505013127 16 44 0.0 0.0 0.00 0.00 0.00 58 1015.4
20260505012626 16 44 0.0 0.0 0.00 0.00 0.00 56 1015.4
20260505012122 16 44 0.0 0.0 0.00 0.00 0.00 57 1015.1
20260505011618 16 44 0.0 0.0 0.00 0.00 0.00 55 1015.3
20260505011115 16 44 0.0 0.0 0.00 0.00 0.00 54 1015.1
20260505010610 17 44 0.0 0.0 0.00 0.00 0.00 52 1015.2
20260505010108 17 44 0.0 0.0 0.00 0.00 0.00 52 1015.1
20260505005604 17 44 0.0 0.0 0.00 0.00 0.00 50 1014.9
20260505005101 17 44 0.0 0.0 0.00 0.00 0.00 48 1015.1
20260505004558 18 44 0.0 0.0 0.00 0.00 0.00 47 1015.0
20260505004055 18 44 0.0 0.0 0.00 0.00 0.00 47 1014.8
20260505003552 20 44 0.0 0.0 0.00 0.00 0.00 42 1014.6
20260505003049 20 44 0.0 0.0 0.00 0.00 0.00 42 1014.6
20260505002549 20 44 0.0 0.0 0.00 0.00 0.00 42 1014.6
20260505002049 20 44 0.0 0.0 0.00 0.00 0.00 42 1014.6
20260505001546 20 44 0.0 0.0 0.00 0.00 0.00 43 1014.6
20260505001043 21 44 0.0 0.0 0.00 0.00 0.00 39 1014.7
20260505000540 21 41 0.0 0.0 0.00 0.00 0.00 37 1014.5
20260505000038 22 57 0.0 0.0 0.00 0.00 0.00 36 1014.4
20260504235534 22 41 0.0 0.0 0.00 0.00 0.00 34 1014.3
20260504235031 22 43 0.0 3.2 0.00 0.00 0.00 34 1014.4
20260504234528 22 62 0.0 4.8 0.00 0.00 0.00 33 1014.1
20260504234025 23 63 1.6 3.2 0.00 0.00 0.00 33 1014.3
20260504233520 23 55 0.0 1.6 0.00 0.00 0.00 33 1014.3
20260504233017 23 59 0.0 1.6 0.00 0.00 0.00 33 1014.1
20260504232514 23 60 0.0 1.6 0.00 0.00 0.00 33 1013.9
20260504232012 23 52 1.6 1.6 0.00 0.00 0.00 32 1014.0
20260504231508 23 57 0.0 0.0 0.00 0.00 0.00 33 1014.1
20260504231004 23 52 0.0 3.2 0.00 0.00 0.00 31 1014.1
20260504230501 24 72 1.6 4.8 0.00 0.00 0.00 31 1014.1
20260504230000 24 137 0.0 3.2 0.00 0.00 0.00 30 1014.2
20260504225456 24 61 0.0 3.2 0.00 0.00 0.00 31 1014.0
20260504224953 24 66 0.0 1.6 0.00 0.00 0.00 30 1014.1
20260504224450 24 52 1.6 4.8 0.00 0.00 0.00 29 1014.1
20260504223947 24 10 0.0 1.6 0.00 0.00 0.00 29 1014.2
20260504223443 25 217 1.6 4.8 0.00 0.00 0.00 29 1014.3
20260504222939 25 49 0.0 3.2 0.00 0.00 0.00 28 1014.2
20260504222437 25 52 0.0 1.6 0.00 0.00 0.00 29 1014.1
20260504221934 25 51 0.0 1.6 0.00 0.00 0.00 28 1014.2
20260504221431 25 150 0.0 1.6 0.00 0.00 0.00 29 1014.1
20260504220928 25 334 3.2 9.7 0.00 0.00 0.00 27 1014.2
20260504220425 25 72 3.2 4.8 0.00 0.00 0.00 27 1014.2
20260504215922 25 126 1.6 6.4 0.00 0.00 0.00 28 1014.2
20260504215418 25 62 0.0 3.2 0.00 0.00 0.00 28 1014.0
20260504214915 25 47 0.0 3.2 0.00 0.00 0.00 28 1014.0
20260504214412 25 60 3.2 9.7 0.00 0.00 0.00 26 1013.9
20260504213908 25 67 1.6 4.8 0.00 0.00 0.00 27 1013.9
20260504213404 25 82 1.6 4.8 0.00 0.00 0.00 26 1013.9
20260504212902 26 100 4.8 6.4 0.00 0.00 0.00 25 1013.9
20260504212357 26 49 0.0 1.6 0.00 0.00 0.00 25 1013.8
20260504211855 26 47 3.2 9.7 0.00 0.00 0.00 25 1014.1
20260504211351 25 105 0.0 4.8 0.00 0.00 0.00 25 1014.0
20260504210849 25 232 1.6 4.8 0.00 0.00 0.00 25 1014.1
20260504210346 25 18 1.6 3.2 0.00 0.00 0.00 25 1014.0
20260504205843 26 54 0.0 6.4 0.00 0.00 0.00 25 1014.1
20260504205341 26 67 0.0 1.6 0.00 0.00 0.00 28 1014.1
20260504204838 26 115 3.2 3.2 0.00 0.00 0.00 28 1014.1
20260504204337 26 101 6.4 6.4 0.00 0.00 0.00 26 1014.3
20260504203836 26 233 1.6 3.2 0.00 0.00 0.00 28 1014.3
20260504203332 26 219 3.2 4.8 0.00 0.00 0.00 26 1014.3
20260504202828 26 29 0.0 3.2 0.00 0.00 0.00 27 1014.1
20260504202326 26 12 0.0 1.6 0.00 0.00 0.00 29 1014.3
20260504201822 25 45 0.0 1.6 0.00 0.00 0.00 27 1014.5
20260504201319 26 20 1.6 1.6 0.00 0.00 0.00 26 1014.4
20260504200817 26 281 1.6 3.2 0.00 0.00 0.00 29 1014.4
20260504200313 26 25 3.2 3.2 0.00 0.00 0.00 26 1014.5
20260504195809 27 9 0.0 1.6 0.00 0.00 0.00 25 1014.6
20260504195305 27 17 3.2 3.2 0.00 0.00 0.00 27 1014.6
20260504194802 27 4 0.0 3.2 0.00 0.00 0.00 27 1014.8
20260504194259 27 39 0.0 1.6 0.00 0.00 0.00 32 1014.8
20260504193755 27 224 3.2 4.8 0.00 0.00 0.00 26 1014.9
20260504193252 27 314 3.2 3.2 0.00 0.00 0.00 26 1014.9
20260504192750 27 183 1.6 6.4 0.00 0.00 0.00 26 1015.2
20260504192248 27 95 6.4 9.7 0.00 0.00 0.00 25 1015.2
20260504191747 27 18 1.6 3.2 0.00 0.00 0.00 26 1015.2
20260504191243 26 110 3.2 9.7 0.00 0.00 0.00 27 1015.4
20260504190739 26 19 0.0 1.6 0.00 0.00 0.00 28 1015.3
20260504190235 27 43 3.2 4.8 0.00 0.00 0.00 28 1015.4
20260504185732 26 40 0.0 3.2 0.00 0.00 0.00 28 1015.5
20260504185229 26 337 1.6 3.2 0.00 0.00 0.00 25 1015.6
20260504184725 26 49 1.6 1.6 0.00 0.00 0.00 26 1015.9
20260504184221 26 9 3.2 3.2 0.00 0.00 0.00 28 1015.9
20260504183717 26 24 1.6 3.2 0.00 0.00 0.00 27 1016.0
20260504183214 26 17 1.6 4.8 0.00 0.00 0.00 26 1016.1
20260504182712 26 24 1.6 6.4 0.00 0.00 0.00 33 1016.1
20260504182209 25 357 1.6 6.4 0.00 0.00 0.00 27 1016.1
20260504181707 25 358 1.6 4.8 0.00 0.00 0.00 33 1016.3
20260504181204 25 19 3.2 6.4 0.00 0.00 0.00 27 1016.1
20260504180703 26 27 0.0 3.2 0.00 0.00 0.00 30 1016.2
20260504180201 26 10 1.6 3.2 0.00 0.00 0.00 31 1016.1
20260504175658 25 57 1.6 1.6 0.00 0.00 0.00 32 1016.5
20260504175155 25 61 0.0 1.6 0.00 0.00 0.00 32 1016.3
20260504174653 25 10 4.8 4.8 0.00 0.00 0.00 27 1016.4
20260504174149 25 21 0.0 1.6 0.00 0.00 0.00 31 1016.4
20260504173646 26 311 3.2 3.2 0.00 0.00 0.00 28 1016.6
20260504173144 25 17 0.0 3.2 0.00 0.00 0.00 35 1016.5
20260504172640 25 312 3.2 3.2 0.00 0.00 0.00 29 1016.4
20260504172137 25 47 1.6 3.2 0.00 0.00 0.00 29 1016.6
20260504171633 25 357 1.6 3.2 0.00 0.00 0.00 31 1016.8
20260504171131 25 12 1.6 4.8 0.00 0.00 0.00 28 1016.8
20260504170627 25 316 3.2 6.4 0.00 0.00 0.00 30 1016.8
20260504170125 25 324 1.6 4.8 0.00 0.00 0.00 32 1016.7
20260504151010 23 63 1.6 3.2 0.00 0.00 0.00 36 1017.8
20260504150508 22 2 0.0 1.6 0.00 0.00 0.00 39 1017.5
20260504140933 21 69 0.0 1.6 0.00 0.00 0.00 48 1018.0
20260504140430 21 31 1.6 3.2 0.00 0.00 0.00 47 1017.7